Flag for U.S.A. Weather past 2 weeks in Dallas, Texas, U.S.A.

Now
90 °F

Sunny.


Feels Like: 94 °F
Forecast: 80 / 98 °F
Wind: 8 mph from Southwest

Location: Dallas Love Field

Current Time: Jul 28, 2015 at 11:19:01 AM

Latest Report: Jul 28, 2015 at 10:53 AM


Visibility: 10 mi

Pressure: 29.93 "Hg

Humidity: 48%

Dew point: 68 °F

Location of DallasLocation

Historic Weather in Dallas — Graph

°F

Dallas temperature yesterday

Maximum temperature yesterday: 100 °F (at 3:53 PM)
Minimum temperature yesterday: 81 °F (at 6:53 AM)
Average temperature yesterday: 91 °F

Past Weeks' High & Low Weather Summary

 TemperatureHumidityPressure
High100 °F (Jul 20, 4:53 PM)74% (Jul 18, 5:53 AM)30.01 "Hg (Jul 18, 5:53 AM)
Low79 °F (Jul 15, 6:53 AM)29% (Jul 25, 4:53 PM)29.77 "Hg (Jul 21, 6:53 PM)
Average90 °F50%29.88 "Hg
* Reported Jul 13 9:53 AM — Jul 28 9:53 AM, Dallas, Weather by CustomWeather, © 2015

Note: Actual official high and low records may vary slightly from our data, if they occured in-between our weather recording intervals... More about our weather records

Advertising

Dallas weather history for previous 24 hours

 ConditionsComfort  
Time TempWeatherWind HumidityBarometerVisibility
9:53 AM
Tue, Jul 28
88 °FSunny.12 mph46%29.94 "Hg10 mi
8:53 AM86 °FSunny.8 mph49%29.95 "Hg10 mi
7:53 AM83 °FSunny.7 mph63%29.93 "Hg10 mi
6:53 AM82 °FPassing clouds.9 mph65%29.91 "Hg10 mi
5:53 AM83 °FClear.10 mph63%29.89 "Hg10 mi
4:53 AM85 °FClear.7 mph59%29.88 "Hg10 mi
3:53 AM85 °FClear.7 mph59%29.88 "Hg10 mi
2:53 AM87 °FClear.7 mph51%29.88 "Hg10 mi
1:53 AM87 °FClear.10 mph51%29.89 "Hg10 mi
12:53 AM88 °FClear.8 mph50%29.89 "Hg10 mi
11:53 PM
Mon, Jul 27
89 °FClear.10 mph48%29.89 "Hg10 mi
10:53 PM91 °FClear.13 mph44%29.89 "Hg10 mi
9:53 PM93 °FPassing clouds.12 mph41%29.86 "Hg10 mi
8:53 PM94 °FPassing clouds.12 mph40%29.84 "Hg10 mi
7:53 PM95 °FPartly sunny.15 mph37%29.83 "Hg10 mi
6:53 PM96 °FPartly sunny.17 mph37%29.82 "Hg10 mi
5:53 PM99 °FPartly sunny.16 mph34%29.83 "Hg10 mi
4:53 PM100 °FPartly sunny.14 mph32%29.84 "Hg10 mi
3:53 PM100 °FBroken clouds.12 mph35%29.85 "Hg10 mi
2:53 PM98 °FScattered clouds.8 mph38%29.86 "Hg10 mi
1:53 PM98 °FScattered clouds.15 mph38%29.88 "Hg10 mi
12:53 PM97 °FScattered clouds.12 mph40%29.90 "Hg10 mi
11:53 AM95 °FScattered clouds.N/A44%29.91 "Hg10 mi
Weather by CustomWeather, © 2015

See weather overviewHow to use our weather pages